Location: Albany
(35.0170°S, 117.8920°E)
Time: 21:44:56
(UTC+08:00)

A-11 Canister half - Pass Details

Date: 25 January 2021
Orbit: 1525 x 1684 km, 47.3° (Epoch: 03 March)

Event Time Altitude Azimuth Distance (km) Brightness Sun altitude
Rises 07:34:11 0° 238° (WSW) 4,889 11.2 25.5°
Reaches altitude 10° 07:37:28 10° 234° (SW) 3,881 10.8 26.2°
Maximum altitude 07:47:13 59° 155° (SSE) 1,800 10.1 28.2°
Drops below altitude 10° 07:56:35 10° 76° (ENE) 3,742 12.4 30.1°
Sets 07:59:41 0° 71° (ENE) 4,706 12.5 30.7°
